Regional Weather Roundup
Issued by NWS

Home | Current Version | Previous Version | Text Only | Print | Product List | Glossary On
Versions: 1 2 3 4 5 6 7 8 9 10 11 12 13 14 15 16 17 18 19 20 21 22 23 24 25 26 27 28 29 30 31 32 33 34 35 36 37 38 39 40 41 42 43 44 45 46 47 48 49 50
000
ASCA44 KEWX 170620
RWRMX

LATIN AMERICA AND CARIBBEAN REGIONAL WEATHER ROUNDUP
NATIONAL WEATHER SERVICE AUSTIN/SAN ANTONIO TX
100 AM CDT THU APR 17 2014

NOTE: "FAIR" INDICATED FEW OR NO CLOUDS BELOW 12,000 FEET WITH NO
SIGNIFICANT WEATHER AND/OR OBSTRUCTIONS TO VISIBILITY.

BAJA CALIFORNIA

CITY           SKY/WX    TMP DP  RH WIND       PRES   REMARKS
LA PAZ           N/A    N/A N/A N/A MISG        N/A
TIJUANA        CLEAR     57  48  72 SW6       29.91R

NORTHWESTERN MEXICO

CITY           SKY/WX    TMP DP  RH WIND       PRES   REMARKS
CULIACAN       MOCLDY    70  61  73 CALM      29.89R
CD. JUAREZ     CLOUDY    72  23  16 W17       29.82R

NORTHEASTERN MEXICO

CITY           SKY/WX    TMP DP  RH WIND       PRES   REMARKS
MONTERREY      CLOUDY    63  52  67 E9        29.91F
SALTILLO       PTCLDY    54  45  71 CALM      30.02F

WESTERN MEXICO

CITY           SKY/WX    TMP DP  RH WIND       PRES   REMARKS
DEL BAJIO      PTCLDY    66  43  42 CALM      30.21R
GUADALAJARA    PTCLDY    66  52  59 W9        30.11R
MAZATLAN       PTCLDY    64  59  82 CALM      29.86S
P. VALLARTA    CLEAR     75  68  78 CALM      29.89R
ZACATECAS      MOCLDY    63  28  27 SE6       30.17S

CENTRAL MEXICO

CITY           SKY/WX    TMP DP  RH WIND       PRES   REMARKS
CUERNAVACA     PTCLDY    73  46  38 CALM      30.06R
MEXICO CITY    CLEAR     63  46  55 SW3       30.26S
MORELIA        PTCLDY    59  46  63 SW2       30.17S
QUERETARO      PTCLDY    68  39  34 W8        30.17F
S. LUIS POTOSI PTCLDY    55  46  71 E5        30.10S
TOLUCA         CLEAR     48  39  71 CALM      30.34R

SOUTHERN MEXICO

CITY           SKY/WX    TMP DP  RH WIND       PRES   REMARKS
ACAPULCO       CLEAR     79  75  89 CALM      29.85R
OAXACA         MOCLDY    64  55  72 CALM      30.18R

YUCATAN PENINSULA

CITY           SKY/WX    TMP DP  RH WIND       PRES   REMARKS
CANCUN         MOCLDY    79  72  78 SE8       29.98S
COZUMEL        PTCLDY    70  70 100 CALM      29.98F
MERIDA         MOCLDY    77  70  78 E7        29.94S
TAPACHULA      MOCLDY    82  77  83 CALM      29.88S HX  91
VILLAHERMOSA   PTCLDY    72  68  88 CALM      29.97S

CENTRAL AMERICA

CITY           SKY/WX    TMP DP  RH WIND       PRES   REMARKS
MANAGUA        PTCLDY    81  70  69 E9        29.77S

CARIBBEAN

CITY           SKY/WX    TMP DP  RH WIND       PRES   REMARKS
ARUBA          PTCLDY    79  73  83 E17       29.86S
CURACAO        PTCLDY    79  73  83 SE9       29.92S
KINGSTON       PTCLDY    79  73  83 N7        29.94S
NASSAU         MOCLDY    79  73  83 E3        30.06S
SAN JUAN       PTCLDY    79  70  73 E12       29.99F
SANTO DOMINGO  PTCLDY    72  70  94 NE6       29.97S
ST. CROIX      PTCLDY    77  70  78 NE7       29.98F
ST. MAARTEN    LGT RAIN  75  70  83 E12       29.97F
ST. THOMAS     CLEAR     77  72  83 E10       29.98F

$$




USA.gov is the U.S. government's official web portal to all federal, state and local government web resources and services.